Creek Data

    Home     View Charts     View Raw Data     Messages

ID Distance Battery Voltage Battery Current Internal Temp Internal Humidity External Temp Solar Input rssi snr Time Stamp Record
67937 14.4 3.77 0 75 47 69 5.1 -70 8 03/04/2026 12:00 PM 50794
67936 14.4 3.77 5 73 47 67 5.1 -70 7 03/04/2026 11:45 AM 50793
67935 14.4 4.06 0 72 48 66 5.1 -70 8 03/04/2026 11:30 AM 50792
67934 14.4 3.77 5 71 48 67 5.1 -71 7 03/04/2026 11:15 AM 50791
67933 14.4 3.76 5 70 48 66 5.1 -71 7 03/04/2026 11:00 AM 50790
67932 14.4 3.76 0 69 48 67 5.1 -70 8 03/04/2026 10:45 AM 50789
67931 14.5 4.05 5 68 48 66 5.1 -69 8 03/04/2026 10:30 AM 50788
67930 14.5 3.82 5 67 48 67 5.1 -69 8 03/04/2026 10:15 AM 50787
67929 14.5 3.82 0 65 48 64 5.1 -71 7 03/04/2026 10:00 AM 50786
67928 14.5 3.87 5 64 47 64 5.1 -70 8 03/04/2026 09:45 AM 50785
67927 14.5 3.76 0 62 48 66 5.1 -71 8 03/04/2026 09:30 AM 50784
67926 14.5 3.76 0 60 48 63 5.1 -70 7 03/04/2026 09:15 AM 50783
67925 14.4 3.76 0 58 48 61 5.1 -70 8 03/04/2026 09:00 AM 50782
67924 14.3 4.05 5 55 49 60 5.1 -70 8 03/04/2026 08:45 AM 50781
67923 14.3 3.75 0 54 49 55 5.1 -70 8 03/04/2026 08:30 AM 50780
67922 14.4 3.75 0 55 48 55 5.1 -69 8 03/04/2026 08:15 AM 50779
67921 14.3 3.74 0 52 49 57 5.1 -70 8 03/04/2026 08:00 AM 50778
67920 14.3 3.74 0 50 50 53 5.1 -70 8 03/04/2026 07:45 AM 50777
67919 14.3 3.88 0 49 51 51 4.5 -71 9 03/04/2026 07:30 AM 50776
67918 14.3 3.79 0 49 51 50 4.5 -71 8 03/04/2026 07:15 AM 50775
67917 14.3 3.60 0 49 51 50 4.5 -70 8 03/04/2026 07:00 AM 50774
67916 14.2 3.54 -10 48 51 50 4.5 -71 9 03/04/2026 06:45 AM 50773
67915 14.2 3.56 -5 48 52 50 1.2 -72 8 03/04/2026 06:30 AM 50772
67914 14.2 3.56 -5 49 52 50 0.2 -71 8 03/04/2026 06:15 AM 50771
67913 14.2 3.74 -5 49 51 50 0 -71 9 03/04/2026 06:00 AM 50770